Regional Weather Roundup
Issued by NWS

Home | Current Version | Previous Version | Text Only | Print | Product List | Glossary On
Versions: 1 2 3 4 5 6 7 8 9 10 11 12 13 14 15 16 17 18 19 20 21 22 23 24 25 26 27 28 29 30 31 32 33 34 35 36 37 38 39 40 41 42 43 44 45 46 47 48 49 50
000
ASUS43 KLSX 260659
RWRMO

WEATHER SUMMARY FOR MISSOURI
NATIONAL WEATHER SERVICE SPRINGFIELD MO
200 AM CDT WED APR 26 2017

NOTE: "FAIR" INDICATES FEW OR NO CLOUDS BELOW 12,000 FEET WITH NO
       SIGNIFICANT WEATHER AND/OR OBSTRUCTIONS TO VISIBILITY.
       CURRENT SKY AND/OR WEATHER CONDITIONS ARE NOT AVAILABLE FOR
       CHILLICOTHE AND FARMINGTON.

MOZ001>031-035>038-043-044-053-054-260800-
...NORTHERN AND WESTERN MISSOURI...

CITY           SKY/WX    TMP DP  RH WIND       PRES   REMARKS
KANSAS CTY INT LGT RAIN  48  47  96 NW9       29.51F
KANSAS C DTWN  LGT RAIN  51  48  89 N8        29.48F
LEE`S SUMMIT   LGT RAIN  52  51  97 N13       29.48F
ST JOSEPH      LGT RAIN  47  45  93 NW14      29.54R
CHILLICOTHE      N/A     53  50  89 VRB6      29.49R
KIRKSVILLE     CLOUDY    60  56  86 E3        29.43F

$$
MOZ066>068-077>081-088>096-101>105-260800-
...SOUTHWEST MISSOURI...

CITY           SKY/WX    TMP DP  RH WIND       PRES   REMARKS
SPRINGFIELD    TSTM      63  56  78 W31G47    29.63R VSB 1
JOPLIN         RAIN      61  60  97 E9        29.49F

$$
MOZ032>034-039>042-045>050-055>058-069>072-260800-
...CENTRAL MISSOURI...

CITY           SKY/WX    TMP DP  RH WIND       PRES   REMARKS
COLUMBIA       CLOUDY    64  57  78 N6        29.46F
JEFFERSON CITY CLOUDY    70  55  59 SE7       29.44F
ROLLA          PTCLDY    66  55  67 S12       29.47F
SEDALIA        RAIN      63  63 100 W6        29.48R FOG
WHITEMAN AFB   TSTM      62  62 100 W8        29.48R FOG
OSAGE BEACH    CLOUDY    68  57  68 S5        29.46F

$$
MOZ051-052-059>065-260800-
...EAST CENTRAL MISSOURI...

CITY           SKY/WX    TMP DP  RH WIND       PRES   REMARKS
ST LOUIS INTL  PTCLDY    71  51  49 S10       29.49F
SPIRIT OF STL  PTCLDY    70  53  54 S7        29.47F
ST CHARLES     CLEAR     65  52  62 SE8       29.47F

$$
MOZ072>076-082>087-097>100-106>115-260800-
...SOUTH CENTRAL AND SOUTHEAST MISSOURI...

CITY           SKY/WX    TMP DP  RH WIND       PRES   REMARKS
CAPE GIRARDEAU CLOUDY    67  54  63 S10       29.57F
FARMINGTON     MOCLDY    67  54  63 S8        29.55F
POPLAR BLUFF   CLOUDY    67  56  67 S6        29.55F
WEST PLAINS    MOCLDY    66  55  67 S6        29.55R

$$



USA.gov is the U.S. government's official web portal to all federal, state and local government web resources and services.